FLOCK 3P-66 (42027 NORAD) Tracking and Keplerian Element Data

This shows tracking and keplerian element data for the satellite.

Feedback or suggestion? Click here.




ElementValue
Catalog42027
NameFLOCK 3P-66
Epoch Orbit32640
Epoch Day358.96741781
Epoch Year2022
RAAN64.8743
Inclination97.2491
Eccentricity0.0004346
Argument of Perigee276.2785
Mean Anonmoly83.798
Mean Motion15.65227574
Decay Rate0.00252071
L11 42027U 17008CH 22358.96741781 .00252071 00000+0 24761-2 0 9992
L22 42027 97.2491 64.8743 0004346 276.2785 83.7980 15.65227574326409



Live tracking and technical data element details for FLOCK 3P-66 (NORAD 42027). FLOCK 3P-66 can be tracked NOW for your location showing map with azimuth and elevation plus other details from your city location.







IsCatalogInMostPopularTable: catalog: 42027, numindb: 614
Update: records affected: 1



GetName: 42027 FLOCK 3P-66

Hit Count: updated at: Thu, 22 May 2025 04:01:06 GMT